Location: Brantley
(31.5822°N, 86.2569°W)
Time: 05:22:45
(UTC+00:00)

Vanguard 2 - Pass Details

Date: 18 February 2026
Orbit: 553 x 2896 km, 32.9° (Epoch: 5 March)

Event Time Altitude Azimuth Distance (km) Brightness Sun altitude
Rises 10:22:29 0° 237° (WSW) 4,530 - -26.5°
Reaches altitude 10° 10:26:14 10° 232° (SW) 3,164 - -25.7°
Exits shadow 10:30:54 33° 210° (SSW) 1,551 8.8 -24.7°
Maximum altitude 10:33:09 47° 161° (SSE) 1,117 8.4 -24.2°
Drops below altitude 10° 10:37:44 10° 87° (E) 2,104 10.9 -23.2°
Sets 10:39:46 0° 81° (E) 2,885 11.9 -22.8°
